Regional Weather Roundup
Issued by NWS

Home | Current Version | Previous Version | Graphics & Text | Print | Product List | Glossary On
Versions: 1 2 3 4 5 6 7 8 9 10 11 12 13 14 15 16 17 18 19 20 21 22 23 24 25 26 27 28 29 30 31 32 33 34 35 36 37 38 39 40 41 42 43 44 45 46 47 48 49 50
389
ASUS44 KJAN 211003
RWRMS

MISSISSIPPI HOURLY WEATHER ROUNDUP
NATIONAL WEATHER SERVICE JACKSON MS
400 AM CST FRI NOV 21 2014

NOTE: "FAIR: INDICATES FEW OR NO CLOUDS BELOW 12,000 FEET WITH NO
SIGNIFICANT WEATHER AND/OR OBSTRUCTIONS TO VISIBILITY.

MSZ001>002-007>008-010>013-018>021-025>028-034>036-211100-
NORTHWEST MISSISSIPPI

CITY           SKY/WX    TMP DP  RH WIND       PRES   REMARKS
CLARKSDALE     CLOUDY    46  45  93 CALM      30.26S
CLEVELAND      CLOUDY    50  49  97 NE3       30.24S
GREENWOOD      CLOUDY    49  46  90 CALM      30.26R
GREENVILLE     CLOUDY    52  48  86 SE5       30.23S
GRENADA        CLOUDY    45  45 100 CALM      30.28R
OLIVE BRANCH   CLOUDY    41  30  65 E3        30.28S
OXFORD         MOCLDY    43  32  65 E5        30.28S
TUNICA         RAIN      43  37  81 NE5       30.28R
$$

MSZ003>006-009-014>017-022>024-029>033-037>039-211100-
NORTHEAST MISSISSIPPI

CITY           SKY/WX    TMP DP  RH WIND       PRES   REMARKS
COLUMBUS AFB   MOCLDY    44  41  89 E2        30.28R
CORINTH        CLOUDY    37  34  87 CALM      30.30R
GOLDN TRIANGLE CLOUDY    48  43  81 E6        30.27S
STARKVILLE       N/A     48  46  93 CALM      30.27S
TUPELO         MOCLDY    40  33  76 N5        30.29R
$$

MSZ040-058-211100-
CENTRAL MISSISSIPPI

CITY           SKY/WX    TMP DP  RH WIND       PRES   REMARKS
JACKSON INTL   CLEAR     43  41  93 CALM      30.25S
JACKSON HAWKNS CLEAR     45  43  93 CALM      30.25R
MERIDIAN KEY   PTCLDY    38  36  92 CALM      30.28R
MERIDIAN NAS   PTCLDY    39  37  92 CALM      30.28S
RAYMOND        FAIR      39  36  87 MISG      30.25S FOG
VICKSBURG      MOCLDY    46  44  93 SE5       30.23F
$$

MSZ059>079-211100-
SOUTH MISSISSIPPI

CITY           SKY/WX    TMP DP  RH WIND       PRES   REMARKS
BROOKHAVEN     FAIR      43  43 100 CALM      30.24F
HATTIESBURG    CLEAR     40  38  93 CALM      30.27S
MCCOMB         CLEAR     41  39  93 CALM      30.23F
NATCHEZ        CLEAR     48  43  81 SE3       30.23R
PINE BELT      CLEAR     43  39  87 NW3       30.28R
$$

MSZ080>082-211100-
COASTAL MISSISSIPPI

CITY           SKY/WX    TMP DP  RH WIND       PRES   REMARKS
BILOXI         CLEAR     44  44 100 E3        30.25S
PASCAGOULA     CLEAR     36  35  96 CALM      30.26S
GULFPORT       CLEAR     42  40  92 CALM      30.25S
$$



USA.gov is the U.S. government's official web portal to all federal, state and local government web resources and services.